Home   Weather   Kohtla-Järve   Past weeks

Flag for Estonia Past Weather in Kohtla-Järve, Estonia — Yesterday and Last 2 Weeks

Now
36 °F

Overcast.


Feels Like: 33 °F
Forecast: 24 / 29 °F
Wind: 3 mph from West

Location: Johvi

Current Time: Dec 9, 2016 at 3:55:42 pm

Latest Report: Dec 9, 2016 at 2:00 pm


Visibility: 28 mi

Pressure: 29.44 "Hg

Humidity: 94%

Dew Point: 34 °F

Location of Kohtla-JärveLocation

Past Weather in Kohtla-Järve — Graph

°F

Kohtla-Järve Temperature Yesterday

Maximum temperature yesterday: 35 °F (at 12:00 am)
Minimum temperature yesterday: 33 °F (at 4:00 am)
Average temperature yesterday: 34 °F

High & Low Weather Summary for the Past Weeks

 TemperatureHumidityPressure
High40 °F (Nov 24, 2:00 pm)100% (Dec 8, 6:00 pm)30.35 "Hg (Dec 8, 6:00 pm)
Low12 °F (Nov 29, 7:00 pm)66% (Dec 5, 9:00 pm)29.03 "Hg (Nov 26, 10:00 pm)
Average29 °F89%29.69 "Hg
* Reported Nov 24 2:00 pm — Dec 9 2:00 pm, Kohtla-Järve, Weather by CustomWeather, © 2016

Note: Actual official high and low records may vary slightly from our data, if they occured in-between our weather recording intervals... More about our weather records

Advertising

Kohtla-Järve Weather History for the Previous 24 Hours

Scroll right to see more
 ConditionsComfort  
Time TempWeatherWind HumidityBarometerVisibility
2:00 pm
Fri, Dec 9
36 °FOvercast.3 mph94%29.44 "Hg28 mi
1:00 pm36 °FLow clouds.6 mph92%29.41 "Hg25 mi
12:00 pm36 °FLow clouds.5 mph92%29.44 "Hg10 mi
11:00 am36 °FLow clouds.7 mph97%29.44 "Hg13 mi
10:00 am36 °FLight rain. Low clouds.7 mph98%29.41 "Hg1 mi
9:00 am35 °FLight rain. Low clouds.3 mph99%29.41 "Hg2 mi
8:00 am35 °FRain showers. Low clouds.5 mph99%29.41 "Hg1 mi
7:00 am34 °FLight rain. Low clouds.3 mph100%29.44 "Hg2 mi
6:00 am34 °FFog.2 mph99%29.47 "Hg2 mi
5:00 am34 °FLight rain. Low clouds.3 mph98%29.47 "Hg2 mi
4:00 am34 °FRain showers. Low clouds.2 mph99%29.50 "Hg2 mi
3:00 am34 °FDrizzle. Low clouds.1 mph99%29.50 "Hg2 mi
2:00 am34 °FFog.2 mph99%29.50 "Hg5 mi
1:00 am33 °FFog.2 mph100%29.50 "Hg2 mi
12:00 am34 °FFog.2 mph98%29.50 "Hg2 mi
11:00 pm
Thu, Dec 8
34 °FLow clouds.3 mph99%29.47 "Hg1 mi
10:00 pm34 °FDuststorm.2 mph98%29.47 "Hg0 mi
9:00 pm34 °FDuststorm.2 mph99%29.44 "Hg1 mi
8:00 pm34 °FFog.3 mph98%29.41 "Hg1 mi
7:00 pm34 °FFog.3 mph99%29.41 "Hg3 mi
6:00 pm34 °FLow clouds.2 mph100%29.38 "Hg1 mi
5:00 pm34 °FLow clouds.2 mph99%29.38 "Hg1 mi
4:00 pm34 °FDuststorm.2 mph98%29.35 "Hg0 mi
3:00 pm34 °FRain showers. Cloudy.1 mph99%29.35 "Hg1 mi
Weather by CustomWeather, © 2016

See weather overviewHow to use our weather pages